Broen, Sweden

7:24 AM CET on February 07, 2016 (GMT +0100)
Eftra 2 | | Change Station
CLOSE
Current Station
Personal Weather Station
Location: Eftra, HALLANDS LäN
Elevation: 138 ft
Nearby Weather Stations

Elev 138 ft 56.86 °N, 12.65 °E | Updated 7 seconds ago

Clear
Clear
41.2 °F
Feels Like 41 °F
N
0.0
Wind Variable Wind from North
Gusts 0.0 mph

Today
High -- | Low -- °F
--% Chance of Precip.
Yesterday
High -- | Low -- °F
Precip. -- in
Pressure 29.47 in
Visibility 6.2 miles
Clouds
Windchill 41 °F
Dew Point 38 °F
Humidity 89%
Rainfall 0.00 in
Snow Depth Not available.
7:56 AM 4:50 PM
Waning Crescent, 2% visible
METAR ESMT 070620Z AUTO 14010KT 9999 NCD 05/03 Q0998
Pressure 29.47 in
Visibility 6.2 miles
Clouds
Windchill 41 °F
Dew Point 38 °F
Humidity 89%
Rainfall 0.00 in
Snow Depth Not available.
7:56 AM 4:50 PM
Waning Crescent, 2% visible
METAR ESMT 070620Z AUTO 14010KT 9999 NCD 05/03 Q0998

10-Day Weather Forecast

Almanac

Astronomy

Feb. 07, 2016 Rise Set
Actual Time
Civil Twilight
Nautical Twilight
Astronomical Twilight
Moon
Length of Visible Light
Length of Day
Tomorrow will be .
, % of the Moon is Illuminated

Today's Extremes

Country Highs Country Lows

Community

WunderPhotos

Upload Photos

1,891,175 photos uploaded!

WunderBlog® & News

Nearby

Air Quality

  Air Quality AQ Index Pollutant
Not available.

Snow Depth

Station Depth Elevation

Earthquake Activity

City Distance Mag. Time & Date
Minimum magnitude displayed is 2.5.

Coastal Water Temperatures

Place Temperature

Stations

Nearby Weather Stations

Station Location Temp. Windchill Dew Point Humidity Wind Precip. Elev Updated Type